Regional Weather Roundup
Issued by NWS

Home | Current Version | Previous Version | Graphics & Text | Print | Product List | Glossary On
Versions: 1 2 3 4 5 6 7 8 9 10 11 12 13 14 15 16 17 18 19 20 21 22 23 24 25 26 27 28 29 30 31 32 33 34 35 36 37 38 39 40 41 42 43 44 45 46 47 48 49 50
000
ASUS43 KMPX 302001
RWRMN
WEATHER ROUNDUP FOR MINNESOTA
NATIONAL WEATHER SERVICE TWIN CITIES/CHANHASSEN MN
300 PM CDT SAT MAY 30 2015


NOTE: "FAIR" INDICATES FEW OR NO CLOUDS BELOW 12,000 FEET WITH NO
SIGNIFICANT WEATHER AND/OR OBSTRUCTIONS TO VISIBILITY. N/A MEANS
CURRENT SKY AND/OR WEATHER CONDITIONS ARE NOT AVAILABLE.

MNZ060>063-068>070-302100-
   Twin Cities Metro

CITY           SKY/WX    TMP DP  RH WIND       PRES   REMARKS
TWIN CITIES    PTSUNNY   61  41  47 N12       30.23S
ST PAUL        PTSUNNY   61  42  49 VRB5      30.24S
CRYSTAL        SUNNY     63  41  44 N9G17     30.23S
LAKEVILLE      PTSUNNY   57  43  58 NE10      30.23S
EDEN PRAIRIE   MOSUNNY   62  42  47 N13G20    30.22S
SOUTH ST PAUL  MOSUNNY   62  42  48 NE8       30.23S
LAKE ELMO      PTSUNNY   61  45  55 N12G17    30.24S
$$
MNZ001>005-007-008-013>017-022>024-027-028-302100-
   Northwest Minnesota

CITY           SKY/WX    TMP DP  RH WIND       PRES   REMARKS
BEMIDJI        SUNNY     52  30  42 CALM      30.32S
HALLOCK        SUNNY     54  27  35 NE6       30.37F
ROSEAU         SUNNY     52  27  37 CALM      30.36F
WARROAD        SUNNY     46  36  66 E8        30.39S
THIEF RVR FALL MOSUNNY   52  32  46 CALM      30.36F
CROOKSTON      SUNNY     54  28  37 NE10      30.36F
FOSSTON        SUNNY     54  37  54 NE10G16   30.35S
DETROIT LAKES  SUNNY     55  32  41 N8        30.31F
MOORHEAD       SUNNY     54  34  47 NE12G17   30.34F
PARK RAPIDS    SUNNY     57  26  30 NE9       30.30S
MAHNOMEN       FAIR      53  33  46 NE10G17   30.32F
$$
MNZ006-009>011-018-025>026-302100-
   North Central Minnesota

CITY           SKY/WX    TMP DP  RH WIND       PRES   REMARKS
BAUDETTE       SUNNY     50  33  52 N12G17    30.36S
FLAG ISLAND    SUNNY     46  27  46 N7        30.36F
INTL FALLS     SUNNY     51  30  44 E10       30.35S
WASKISH        SUNNY     54  36  50 NE7       30.34S
BIG FORK       SUNNY     55  28  35 NE3       30.33S
LONGVILLE      SUNNY     55  28  35 N6        30.30S
GRAND RAPIDS   SUNNY     55  28  35 N14G20    30.30F
CRANE LAKE     SUNNY     52  28  40 N3        30.35F
COOK           SUNNY     52  30  43 N5        30.32F
WALKER         FAIR      53  31  43 E3        30.31F
$$
MNZ012-019>021-037-302100-
   Northeast Minnesota

CITY           SKY/WX    TMP DP  RH WIND       PRES   REMARKS
DULUTH         SUNNY     54  35  48 SE10      30.27S
HIBBING        SUNNY     56  29  35 N9G18     30.30S
EVELETH        SUNNY     54  28  37 NE9G17    30.30F
DULUTH HARBOR  SUNNY     48  39  71 NE7       30.31S
TWO HARBORS    SUNNY     55  39  54 SE8       30.28R
SILVER BAY     SUNNY     54  34  47 E6        30.28R
GRAND MARAIS     N/A     43  34  70 S5        30.32F
G MARAIS ARPRT SUNNY     52  27  37 N8        30.29S
$$
MNZ029>031-032-039>041-046>048-054>057-064-302100-
   West Central Minnesota

CITY           SKY/WX    TMP DP  RH WIND       PRES   REMARKS
FERGUS FALLS   SUNNY     55  36  47 N7        30.31F
WHEATON        SUNNY     52  39  62 N9        30.34S
MORRIS         SUNNY     57  39  51 N9        30.29S
ALEXANDRIA     SUNNY     57  34  41 NE10      30.29F
ELBOW LAKE     FAIR      54  34  45 NE5       30.30S
WADENA         SUNNY     55  36  47 N13G20    30.29S
GLENWOOD       SUNNY     57  37  47 N8        30.29S
APPLETON       SUNNY     59  37  44 N14       30.28F
BENSON         SUNNY     61  34  36 NE5       30.28F
ORTONVILLE     MOSUNNY   55  39  54 N12G17    30.30F
MADISON        SUNNY     57  41  54 N12G18    30.29F
WILLMAR        FAIR      59  39  47 N14       30.28S
$$
MNZ033>034-036-042>043-049>051-058-059-302100-
   Central Minnesota

CITY           SKY/WX    TMP DP  RH WIND       PRES   REMARKS
ST CLOUD       SUNNY     59  35  40 N9G17     30.26F
SAUK CENTRE    FAIR      56  34  43 NW9G20    30.27F
PAYNESVILLE    SUNNY     55  36  48 NW10G17   30.27S
AITKIN         SUNNY     59  30  33 N10       30.27S
PINE RIVER     SUNNY     54  36  50 NW8       30.32F
BRAINERD       SUNNY     58  31  35 N9        30.29S
STAPLES        SUNNY     55  25  30 NE10G17   30.29S
LONG PRAIRIE   FAIR      55  34  44 NW6       30.29S
LITTLE FALLS   SUNNY     57  32  38 N5        30.28S
LITCHFIELD     SUNNY     61  37  41 NE7G17    30.27R
BUFFALO        SUNNY     61  37  41 NE10G16   30.26S
MAPLE LAKE     SUNNY     61  43  50 N10       30.27S
$$
MNZ037-044-045-052-053-302100-
   East Central Minnesota

CITY           SKY/WX    TMP DP  RH WIND       PRES   REMARKS
PRINCETON      SUNNY     63  37  39 N7        30.26S
MORA           SUNNY     57  32  38 N8        30.27F
CAMBRIDGE      SUNNY     63  43  48 NE10      30.24S
RUSH CITY      SUNNY     60  39  46 NE10      30.25F
MOOSE LAKE     SUNNY     59  32  36 N9        30.25S
HINCKLEY       FAIR      61  37  41 N12       30.26S
CLOQUET        SUNNY     57  25  28 NE6G16    30.27S
MCGREGOR       SUNNY     55  32  41 N6        30.29S
$$
MNZ071>073-080-081-089-090-097-098-302100-
   Southwest Minnesota

CITY           SKY/WX    TMP DP  RH WIND       PRES   REMARKS
MONTEVIDEO     MOSUNNY   61  43  51 NE10G21   30.29S
GRANITE FALLS  SUNNY     59  41  51 N8        30.28F
CANBY          SUNNY     56  42  59 N13       30.30F
MARSHALL       SUNNY     57  37  47 NE15G21   30.27S
REDWOOD FALLS  SUNNY     61  39  44 N15G22    30.25F
OLIVIA         SUNNY     57  34  41 NE8G21    30.25S
PIPESTONE      SUNNY     57  41  54 NE12G20   30.26S
WINDOM         SUNNY     59  43  55 N17       30.24S
WORTHINGTON    SUNNY     57  43  58 NE16G22   30.24S
JACKSON        MOSUNNY   59  45  58 VRB16     30.23S
TRACY          SUNNY     59  42  53 N17       30.26F
SLAYTON        SUNNY     56  40  54 NE14G22   30.26S
$$
MNZ065>067-074>077-082>085-091>093-302100-
   South Central Minnesota

CITY           SKY/WX    TMP DP  RH WIND       PRES   REMARKS
MANKATO        MOSUNNY   61  43  51 N12       30.22F
NEW ULM        MOSUNNY   59  39  47 NE8G16    30.23F
ST JAMES       MOSUNNY   63  45  51 N14G21    30.24S
FAIRMONT       MOSUNNY   57  41  54 N14       30.22S
GLENCOE        SUNNY     60  44  55 N12G17    30.24S
FARIBAULT      MOSUNNY   59  45  58 N10G18    30.22F
OWATONNA       PTSUNNY   57  45  62 NE15G22   30.22S
WASECA         PTSUNNY   59  45  58 NE14G21   30.23S
ALBERT LEA     PTSUNNY   61  46  59 N14       30.20S
$$
MNZ078>079-086>088-094>096-302100-
   Southeast Minnesota

CITY           SKY/WX    TMP DP  RH WIND       PRES   REMARKS
ROCHESTER      CLOUDY    56  48  74 NE17      30.21F
RED WING       MOSUNNY   59  43  55 NE7G17    30.22S
STANTON        PTSUNNY   60  46  59 NE13G20   30.21F
DODGE CENTER   CLOUDY    57  48  72 NE12      30.21S
WINONA         CLOUDY    59  50  72 N6        30.19S
AUSTIN         CLOUDY    55  48  76 N12G20    30.19S
PRESTON        CLOUDY    56  49  78 N13       30.18F
$$
ABBREVIATIONS USED IN REMARKS
   TC - TEMPERATURES IN CELSIUS
  WCI - WIND CHILL INDEX
   HX - HEAT INDEX
  VSB - VISIBILITY
$$



USA.gov is the U.S. government's official web portal to all federal, state and local government web resources and services.